Weather in Balakhani

Russia / Republic of Dagestan     42°37′57″N   46°53′34″E
temp.,
°C
wind,
m/s
gust,
m/s
humid.,
%
clouds,
%
prec.,
mm/h
press.,
hPa
HPBL,
m
16 may, sun
sun1600:00+15sw326972 0.0 101426
03:00+14ssw436766 0.0 101433
06:00+16ssw44665 0.0 101292
09:00+22sse23432 0.0 1011746
12:00+25e44331 0.0 10091661
15:00+24ese66381 0.0 1008852
18:00+21se23540 0.0 100794
21:00+17ssw43550 0.0 100933
17 may, mon
mon1700:00+14ssw544116 0.0 100953
03:00+13sw54375 0.0 100851
06:00+15sw444835 0.0 100874
09:00+23s223299 0.0 1007518
12:00+27ne232732 0.0 10051707
15:00+25ene32403 0.0 1005773
18:00+23ene115427 0.0 100525
21:00+19sw225019 0.0 100615
18 may, tue
tue1800:00+18ssw2247100 0.0 100623
03:00+15wsw11546 0.0 100611
06:00+16w1164100 0.0 100763
09:00+19nne326060 0.4 1008852
12:00+16ne338296 2.4 1009557
15:00+15nne1281100 4.8 1011473
18:00+15n1182100 0.3 1011124
21:00+13nnw1188100 1.9 101318
19 may, wed
wed1900:00+12w11863 0.1 101310
03:00+11wsw228320 0.1 101312
06:00+14wsw22740 0.0 101491
09:00+18ne21590 0.0 1012853
12:00+20nne435616 0.0 10131364
15:00+19nne435774 0.2 10141365
18:00+17nnw1269100 0.2 1016254
21:00+16nw116687 0.2 101734
20 may, thu
thu2000:00+13se117319 0.0 101810
03:00+12s11770 0.0 101910
06:00+14sse12720 0.0 1020110
09:00+18e33582 0.0 1018973
12:00+21ene44535 0.0 10151175
15:00+21ene33570 0.0 1014837
18:00+19e22681 0.0 1014183
21:00+18ssw32720 0.0 101317